Regional Weather Roundup
Issued by NWS

Home | Current Version | Previous Version | Graphics & Text | Print | Product List | Glossary On
Versions: 1 2 3 4 5 6 7 8 9 10 11 12 13 14 15 16 17 18 19 20 21 22 23 24 25 26 27 28 29 30 31 32 33 34 35 36 37 38 39 40 41 42 43 44 45 46 47 48 49 50
000
ASUS43 KLOT 310806
RWRIL

ILLINOIS REGIONAL WEATHER ROUNDUP
NATIONAL WEATHER SERVICE CHICAGO/ROMEOVILLE IL
300 AM CDT THU JUL 31 2014

NOTE: "FAIR" INDICATES FEW OR NO CLOUDS BELOW 12,000 FEET WITH NO
SIGNIFICANT WEATHER AND/OR OBSTRUCTIONS TO VISIBILITY.

* THESE STATIONS ARE NOT UNDER NWS QUALITY CONTROL. THEY ALSO MAY NOT
  REPORT WEATHER SUCH AS PRECIPITATION OR FOG.

ILZ001-002-007-009-015-016-024-310900-
NORTHWEST ILLINOIS

CITY           SKY/WX    TMP DP  RH WIND       PRES   REMARKS
MOLINE         CLEAR     60  56  86 CALM      30.05F
STERLING*      CLEAR     59  55  88 CALM      30.05S
SAVANNA*       CLEAR     58  56  92 CALM      30.04S
$$

ILZ003-004-008-010-011-017-018-310900-
NORTH CENTRAL ILLINOIS

CITY           SKY/WX    TMP DP  RH WIND       PRES   REMARKS
ROCKFORD       CLEAR     57  53  86 S3        30.05S
FREEPORT*      CLEAR     58  54  88 SW6       30.06S
ROCHELLE*      CLEAR     53  52  94 S5        30.05S
DE KALB*       CLEAR     55  52  88 CALM      30.05S
PERU*          CLEAR     60  57  89 W5        30.06R
$$

ILZ005-006-012>014-019>023-310900-
NORTHEAST ILLINOIS

CITY           SKY/WX    TMP DP  RH WIND       PRES   REMARKS
CHICAGO-OHARE  CLEAR     60  55  83 CALM      30.02F
CHICAGO-MIDWAY CLEAR     65  59  81 SW3       30.03S
AURORA         CLEAR     54  52  93 CALM      30.04S FOG
LANSING*       PTCLDY    56  55  95 CALM      30.04S FOG
JOLIET*        CLEAR     56  56  97 CALM      30.04S FOG
WAUKEGAN       CLEAR     59  56  89 SW6       30.01F
DUPAGE AIRPORT CLEAR     59  56  89 CALM      30.03S FOG
KANKAKEE*      FOG       56  55  99 CALM      30.05S VSB 1
WHEELING       CLEAR     60  56  86 CALM      30.03F
MORRIS*        CLEAR     58  58 100 CALM      30.04S
ROMEOVILLE*    CLEAR     58  58  98 SW3       30.04S FOG
NORTHERLY ISL    N/A     65  59  81 SW5         N/A
$$

LMZ740>746-310900-
SOUTHERN LAKE MICHIGAN

STATION/POSITION SKY/WX   TEMP    WIND        PRES    VSBY  WAVE
                          AIR SEA DIR/SP/G                  HT/PER
                          (F)     (DEG/KT/KT) (MB)    (MI)  (FT/S)
SOUTHERN BUOY              62 60  230/ 10/ 12 1016.0F         0
WAUKEGAN HARBOR            63     240/  8/ 11   N/A
HARRISON CRIB              66     200/ 11/ 13   N/A
BURNHAM HARBOR             65     250/  4/  6   N/A
CALUMET HARBOR             63     230/  3/  5 1015.7R
MICHIGAN CITY              62     140/  5/  6   N/A
MICHIGAN CITY 6N           65 69  200/  6/  8   N/A           1
ST. JOSEPH                 66 69  170/  8/ 10   N/A           1/ 2
$$

ILZ025>027-034>036-040-047-049-050-058-095>099-310900-
WEST-CENTRAL ILLINOIS

CITY           SKY/WX    TMP DP  RH WIND       PRES   REMARKS
QUINCY         CLEAR     62  58  86 CALM      30.07F
GALESBURG*     CLEAR     58  57  96 CALM      30.07R
MACOMB*          N/A     58  57  97 W3        30.09S
JACKSONVILLE*  CLEAR     61  60  96 CALM      30.08S
PITTSFIELD*    CLEAR     59  57  91 CALM      30.08F
$$

ILZ028>032-037-038-041>044-048-051>054-059>061-310900-
CENTRAL ILLINOIS

CITY           SKY/WX    TMP DP  RH WIND       PRES   REMARKS
PONTIAC        CLEAR     57  55  94 CALM      30.05S
DECATUR        CLEAR     61  57  87 W3        30.07S
PEORIA         CLEAR     63  58  83 CALM      30.06S
LACON*         CLEAR     58  55  92 CALM      30.05S
LINCOLN*       CLEAR     60  58  92 CALM      30.05S
SPRINGFIELD    CLEAR     59  57  93 CALM      30.07S
TAYLORVILLE    CLEAR     57  55  94 CALM      30.08R
$$

ILZ033-039-045-046-055>057-062-063-310900-
EAST-CENTRAL ILLINOIS

CITY           SKY/WX    TMP DP  RH WIND       PRES   REMARKS
CHAMPAIGN      CLEAR     60  58  92 SW3       30.07S
DANVILLE*      CLEAR     57  57  99 CALM      30.03S FOG
RANTOUL*       CLEAR     60  57  88 SW5       30.07R
MATTOON        CLEAR     62  59  90 S6        30.06F
PARIS*         CLEAR     57  56  97 CALM      30.07S
$$

ILZ079-100>102-310900-
SOUTHWEST ILLINOIS

CITY           SKY/WX    TMP DP  RH WIND       PRES   REMARKS
ALTON          CLEAR     60  60 100 CALM      30.07S
BELLEVILLE     FOG       61  61 100 CALM      30.06S VSB 1/2
CAHOKIA*       CLEAR     61  60  97 CALM      30.07S
SPARTA*        CLEAR     59  57  94 CALM      30.08S
$$

ILZ064>066-069>071-074>076-080>082-084>086-088>090-092>094-310900-
SOUTH-CENTRAL ILLINOIS

CITY           SKY/WX    TMP DP  RH WIND       PRES   REMARKS
CARBONDALE     MOCLDY    60  57  89 CALM      30.08R FOG
CAIRO*           N/A     63  61  93 CALM      30.07S FOG
EFFINGHAM*     CLEAR     60  57  90 CALM      30.08S
MARION         PTCLDY    63  61  94 CALM      30.08S FOG
MT. VERNON     CLEAR     57  54  88 CALM      30.09R
CENTRALIA*     CLEAR     57  55  94 CALM      30.08R FOG
SALEM*         CLEAR    N/A N/A N/A CALM      30.08S
METROPOLIS*    PTCLDY    59  58  96 CALM      30.07F FOG
$$

ILZ067-068-072-073-078-083-087-091-310900-
SOUTHEAST ILLINOIS

CITY           SKY/WX    TMP DP  RH WIND       PRES   REMARKS
LAWRENCEVILLE  CLEAR     61  59  93 S3        30.07F
FLORA*         CLEAR     60  58  94 CALM      30.08S
FAIRFIELD*     CLEAR     61  59  94 CALM      30.08S
HARRISBURG*    PTCLDY    59  59 100 CALM      30.09S FOG
ROBINSON*      CLEAR     60  59  96 CALM      30.08S
$$

ABBREVIATIONS USED IN REMARKS
   TC - TEMPERATURE IN CELSIUS
  WCI - WIND CHILL INDEX
   HX - HEAT INDEX
  VSB - VISIBILITY
$$




USA.gov is the U.S. government's official web portal to all federal, state and local government web resources and services.